DECAYED

EPSILON R/B, 43153 (Decayed)

Orbit data source: Space-Track

EPSILON R/B, 43153 was space debris in LEO originally from a launch on Wed, 17 Jan 2018 UTC launched from the Kagoshima Space Center University Of Tokyo (KSCUT). Debris objects in space refer to the collection of defunct objects orbiting the Earth. Examples of debris include non-operational satellites, rocket bodies, and fragments generated from explosions, collisions, or faulty payload assembly.

Not visible in the next 10 days
Identifier
43153, 2018-007B
Orbit
Decayed
Country
Flag of JPJP / JPN
Related business
Manufacturer
JAXA
Mission
Decayed spacecraft
Bus & Motor
EPBS, Unknown motor
Mass
~185 kg wet, ~185 kg dry
Launch date (UTC)
2018-01-17 (8 years ago)
Launch vehicle
Unknown
Launch site
Kagoshima Space Center University Of Tokyo (KSCUT)
Object type
Payload
Rocket body
Debris
Shape & HBR
Cyl, 0.8 m
Radar Cross Section
2.297 m², Large (>1 m²)

Expand to show TLE details & history
Last TLE update: 1 year ago

TLE from 1 year ago
0 EPSILON R/B
1 43153U 18007B   24235.72727729  .39980158  26350-5  15933-3 0  9999
2 43153  97.2870 270.8298 0011327 255.7088 199.7159 16.57586518369344
Epoch: 2024-08-22T17:27Z
TLE epoch observation values (Epoch: 2024-08-22T17:27:16.757Z)
Latitude
80.99763°
Longitude
-89.13351°
Altitude
139.811 km
Speed
7.825 km/s
True Right ascension
09h 36m 47s
True Declination
80° 56' 21"
Sunlit
Object was in daylight at epoch
Visualization orbit readout
Latitude
Unknown
Longitude
Unknown
Altitude
Unknown
Speed
Unknown
Apparent Right ascension
Unknown
Apparent Declination
Unknown
Sunlit
N/A
Visualization observer readout
Local Sidereal Time
11:10:54
Azimuth
Unknown
Elevation
Unknown
Doppler factor
Unknown
Orbital elements
Apogee altitude
123.57 km
Perigee altitude
108.858 km
Semi-major axis
6,494.351 km
Eccentricity
0.00113
Inclination
97.287°
RAAN
270.8298°
Arg. of periapsis
255.7088°
True anomaly
199.67217°
Mean anomaly
199.7159°
Eccentric anomaly
199.69403°
Mean motion
4.14705 °/min
Orbital period
86.81 mins
BSTAR
0.00015933
Loading maneuver chart data...
Computing Atmospheric mass density...
Loading historical data...
Loading historical data...
Loading historical data...
Loading historical data...
Loading historical data...
Loading historical data...
Loading historical data...
Other satellites on launch #7 in the year 2018 (2018-01-17 UTC)

Documentation

Showing up to 5 results
|